CAPE
1636 1848 1729 1726 1699 1587 1414 1172 1029 1014 959 802 561 413 407 414 397 443 310 341 282 176 235 152 100 66 156 137 373 495 572 562 504 514 703 818 573 758 624 916 912 1222 1590 1288 1487 1474 1678 1742 1661 1530 1900 2177 2162 1931 1273 1180 1272 891 880 1226 1257 1892
1790 1816 1911 1853 1739 1578 1334 1156 1027 981 856 702 476 492 531 367 788 526 632 605 637 747 410 130 178 324 226 332 240 460 313 509 259 496 627 717 837 756 1166 1042 1477 1687 1342 1706 1937 1694 1238 1693 1986 1981 2198 2352 1942 983 1003 883 1681 918 1344 1357 1794 2431
1233 1718 2199 1916 1603 1642 1172 1199 1026 933 774 670 540 514 480 433 448 489 774 816 1271 1627 1203 716 720 141 663 569 606 555 271 507 710 516 889 866 1089 1197 1155 1558 1484 1784 1941 1837 1742 1363 716 568 1050 1922 2412 2114 1241 1064 1498 1504 1828 1288 1443 1565 1784 2332
1392 2201 1878 1651 1782 1616 1313 1273 1162 980 622 523 447 270 487 435 70 336 680 1270 1514 1582 1602 1620 556 741 333 304 504 479 580 700 792 1006 716 1350 1059 1595 1532 1787 1851 1972 1816 1696 933 357 334 562 880 1118 1328 1419 829 1383 1447 1807 2758 1400 1308 1418 1674 2046
1958 2158 2112 1897 1802 1515 1487 1410 1335 836 539 290 256 688 636 656 678 189 878 1428 1491 1273 1587 1672 1654 1273 351 521 168 666 737 940 802 898 1427 1064 784 460 1420 1150 1017 1207 1205 694 384 465 602 708 1259 1186 1213 1513 830 928 1270 1471 2237 1353 1190 1210 1228 1369
2349 2257 2260 1892 1882 1558 1683 1461 1280 1156 716 296 641 682 467 651 988 1160 1365 1442 1725 1718 1563 1425 1212 1333 1659 1747 214 408 418 473 667 489 883 686 1818 2214 1054 949 1377 1072 536 1950 1138 1725 1209 1502 1661 1395 1298 842 853 957 1124 1509 1470 1182 930 802 857 964
2282 2061 1884 2017 1923 1757 1570 1390 1234 1137 946 777 676 621 590 1038 1186 1370 1536 1707 1976 1740 2183 2193 1918 1938 1729 2072 2111 2373 2359 2130 2130 2039 2442 1809 1875 1746 2271 1805 1564 1576 875 1139 1157 1183 1643 1815 1715 1254 1350 649 656 709 1446 1636 1271 1035 740 601 619 691
1790 1796 2123 2198 2228 1637 1542 1255 1407 1259 890 832 776 700 866 1052 1441 1575 1929 2200 1879 2469 2568 1993 2207 1866 1765 1788 1170 917 1745 1672 1762 1755 1608 1767 1750 2004 1977 1551 1198 1195 1061 674 774 1329 1339 845 1395 1300 761 926 741 955 1333 1560 1062 888 718 374 526 515
1266 1570 1720 2154 1947 1714 1396 1390 1275 1230 1049 1012 731 770 1068 1111 1226 1593 1935 1858 2157 1998 1742 1942 1209 888 805 1416 1194 883 1216 1122 1027 1554 1465 1395 2088 2332 2426 2420 2013 1297 1400 1330 1582 975 1304 1100 1224 908 813 735 834 992 1197 1369 1047 900 599 343 242 256
1191 1555 1703 1748 1568 1497 1537 1499 1400 1143 1588 423 1337 943 1148 1223 1317 1524 1890 1816 2376 1509 1079 745 964 1335 1318 1022 1072 1032 1044 835 960 1211 1090 1272 1523 1950 2305 2679 1831 2076 1712 1028 1180 1310 1041 994 568 458 505 901 1053 1008 1067 1108 935 836 637 308 139 105
1764 1804 1837 1544 1655 1668 1584 1583 1541 1459 1122 365 1057 1204 1097 1408 1183 1528 1700 2007 1840 2205 1658 1147 1415 1137 1363 1202 1229 865 678 835 822 783 957 1267 1587 1604 1883 1949 1555 1679 1451 1303 1143 1210 904 1127 560 531 505 467 542 491 662 722 776 739 569 421 273 0
1814 2162 2001 1837 1689 1723 1631 1619 1616 1457 1123 526 1274 1234 1024 1373 1415 1483 1581 1990 2228 2334 1613 1220 1106 1249 1104 1064 1071 1074 916 824 900 701 1141 697 1648 980 1089 1065 1308 1144 1487 1438 1694 1524 1574 1204 877 498 452 430 370 330 342 316 290 273 583 409 402 0
1740 1883 2126 2062 1911 1791 1850 1558 1421 1120 944 1306 1265 1220 1241 1445 1409 1410 2060 1690 1684 1844 2303 2184 1581 1198 1325 980 1132 1057 1347 1093 863 783 921 995 977 634 975 1299 2277 1274 1586 1584 1456 1340 1198 1394 663 516 369 290 210 199 177 129 150 71 80 247 369 30
2007 1892 2085 2294 2301 1742 1802 1573 1292 1167 1165 1382 1355 1206 1495 1571 1442 1647 1708 1509 1810 1558 1964 2123 1516 1368 1224 1005 1105 919 1088 1384 991 948 947 1143 1260 597 740 1216 1440 1573 1455 1398 921 1337 1332 1315 905 406 227 228 150 35 2 0 61 40 0 0 2 27
2079 2108 2056 2198 2060 2028 1953 1398 1045 922 1380 1501 1360 1413 1581 1682 1450 1484 1305 2111 1678 1679 1814 1467 1372 1360 967 1288 879 856 1151 922 742 1130 917 908 720 818 1265 1293 1458 1649 1433 1614 998 808 859 652 439 287 206 82 6 1 0 0 0 0 0 0 0 0
2061 2179 2051 2100 2053 1931 1869 1802 1132 1093 1505 1559 1233 1059 1623 1531 1319 1425 1499 1763 1610 1762 1639 1544 1379 1229 1384 1522 1145 1137 1282 854 728 837 716 450 753 1204 1299 1580 1232 1009 1714 1483 1120 1090 845 597 343 176 56 1 0 0 0 0 0 0 0 0 0 0
1964 2197 2149 2104 2107 2090 2069 1590 1328 1318 1468 1473 1369 1498 1418 1622 1252 1362 1769 1714 1619 1771 1345 1246 1187 885 1084 1216 1064 1055 1312 1510 1060 953 967 1239 1076 517 970 1041 1569 887 872 1119 1131 772 762 547 420 280 18 0 0 0 0 0 0 0 0 0 0 0
2087 2109 2185 2171 2065 1982 1850 1570 1349 1274 1450 1239 1272 1136 1476 1321 1492 1796 1798 1836 1442 1768 1336 1026 1000 551 1261 1119 1160 1150 1461 1349 1467 1484 1429 1345 942 1025 702 986 1136 963 543 695 744 838 518 338 203 170 0 0 0 0 0 0 0 0 0 0 0 0
2006 2161 2108 2193 2030 2028 1941 1756 1519 1486 1383 1392 1265 1288 1711 1312 1620 1850 1717 1391 1365 1769 1358 974 598 630 631 1221 969 1402 1380 1331 1032 1310 944 836 1006 839 886 745 978 654 634 354 540 911 760 326 18 0 0 0 0 0 0 0 0 0 0 0 0 0
2067 2056 2038 2141 1942 1680 1462 1456 1223 1246 1310 1246 1264 1612 1784 1716 1817 1619 1540 1333 1072 1234 1301 1193 835 561 704 771 812 1235 880 706 384 582 625 726 415 548 544 440 543 338 887 179 504 586 314 0 0 0 0 0 0 0 0 0 0 0 0 0 0 0
2061 1917 1925 1908 1780 1456 1395 1378 1286 1163 1375 1519 1178 1482 1590 1705 1521 1467 1519 1121 1127 1382 1251 1060 621 524 482 514 634 717 762 412 559 343 405 462 329 332 306 510 667 232 502 460 200 342 403 147 1 0 0 0 0 0 0 0 0 0 0 0 0 0
1954 1901 1899 1879 1742 1764 1546 1300 1318 1076 1176 1178 1108 1120 1485 1531 1578 1489 1454 1410 1172 1096 1197 937 760 639 589 363 669 629 369 304 155 537 494 299 333 219 234 241 539 142 402 1283 379 518 126 16 10 0 0 0 0 0 0 0 0 0 0 0 0 0
1835 1854 1744 1709 1541 1610 1690 1653 1393 1288 1221 1008 977 1259 1154 975 1199 892 1104 987 970 1013 453 398 313 326 406 300 268 239 197 202 90 98 262 534 124 492 169 648 192 238 2 154 324 366 518 654 58 29 21 0 0 0 0 0 0 0 0 0 0 0
1915 1861 1792 1642 1489 1631 1562 1722 1555 1522 1224 942 1073 952 881 659 708 593 560 520 471 370 328 250 139 244 174 198 236 276 275 236 297 16 95 724 178 52 138 175 377 137 26 0 39 196 116 240 431 196 74 82 37 0 0 0 0 0 0 0 0 0
1911 1941 1678 1547 1518 1659 1581 1528 1492 1528 1188 940 982 668 541 583 504 435 357 450 398 206 94 116 140 120 22 46 10 16 0 10 15 2 90 17 61 38 137 67 68 310 55 410 1 28 46 14 190 56 0 47 236 201 236 0 0 0 0 0 0 0
1820 1749 1593 1675 1471 1476 1082 1379 1333 1051 919 837 760 697 611 505 478 304 210 296 71 81 25 32 46 64 1 2 6 0 0 0 0 8 64 10 5 113 45 5 0 3 1 0 0 0 0 0 0 0 0 30 10 191 1 0 0 0 0 0 0 0
1798 1686 1554 1491 1528 1298 1208 1289 1247 1025 932 904 749 668 769 580 377 283 265 228 127 48 2 32 16 35 1 0 2 0 0 0 0 0 4 34 6 1 0 0 0 0 0 0 0 0 0 0 0 0 0 0 0 0 13 0 0 0 0 0 0 0
1611 1578 1388 1260 1332 1465 1406 1417 1334 1108 1073 909 715 784 777 494 421 337 174 39 0 18 24 53 20 0 0 0 1 0 0 0 0 0 0 0 0 0 0 0 0 0 0 0 0 17 0 0 0 0 0 0 0 0 0 0 0 0 0 0 0 0
1679 1537 1484 1238 1280 1440 1493 1541 1358 1118 1112 973 899 816 568 377 317 275 210 36 0 0 98 66 8 0 1 0 0 0 0 0 0 0 0 0 0 0 0 0 0 0 0 0 0 0 0 0 0 0 0 0 0 0 0 0 0 0 0 0 0 0
1754 1664 1621 1306 1426 1430 1565 1537 1322 1207 1198 1114 898 668 368 177 166 179 87 39 80 175 0 28 2 0 0 0 0 0 0 0 0 0 0 0 0 0 0 0 0 0 0 0 0 0 0 0 0 0 0 0 0 0 0 0 0 0 0 0 0 0
1792 1748 1785 1541 1547 1508 1590 1397 1368 1315 1254 960 659 491 250 82 45 61 3 12 115 96 14 3 0 0 1 0 0 0 0 0 0 0 0 0 0 0 0 0 0 0 0 0 0 0 0 0 0 0 0 0 0 0 0 0 0 0 0 0 0 0
1885 1810 1825 1684 1603 1630 1450 1387 1420 1471 1249 883 557 518 420 181 67 29 7 16 57 67 14 2 0 0 0 0 0 0 0 0 0 0 0 0 0 0 0 0 0 0 0 0 0 0 0 0 0 0 0 0 0 0 0 0 0 0 0 0 0 0
1738 1718 1820 1678 1704 1592 1468 1442 1538 1594 1224 736 597 518 417 322 135 230 10 71 17 5 1 1 6 0 0 4 0 0 0 0 0 0 0 0 0 0 0 0 0 0 0 0 0 0 0 0 0 0 0 0 0 0 0 0 0 0 0 0 0 0
1723 1671 1714 1682 1651 1545 1653 1555 1681 1293 1150 726 595 488 406 346 329 130 46 15 49 4 0 4 6 4 0 0 0 0 0 0 0 0 0 0 0 0 0 0 0 0 0 0 0 0 0 0 0 0 0 0 0 0 0 0 0 0 0 0 0 0
1814 1710 1757 1744 1610 1296 1502 1778 1368 1283 932 730 546 448 442 429 398 192 61 45 37 27 5 2 3 7 2 1 1 0 0 0 0 0 0 0 0 0 0 0 0 0 0 0 0 0 0 0 0 0 0 0 0 0 0 0 0 0 0 0 0 0
1788 1737 1818 1746 1528 1602 1564 1480 1300 1313 893 831 549 559 514 498 342 120 54 26 52 54 11 5 5 2 1 1 0 0 0 0 0 0 0 0 0 0 0 0 0 0 0 0 0 0 0 0 0 0 0 0 0 0 0 0 0 0 0 0 0 0
1818 1739 1850 1776 1640 1616 1624 1436 1405 1209 1038 960 617 587 545 437 274 126 99 60 78 69 6 3 10 0 0 0 0 0 0 0 0 0 0 0 0 0 0 0 0 0 0 0 0 0 0 0 0 0 0 0 0 0 0 0 0 0 0 0 0 0
Wind_Speed
27 31 32 32 30 30 32 35 32 32 32 31 31 30 29 28 26 26 26 26 26 23 22 21 21 nan 23 21 23 18 22 18 17 16 16 15 14 13 12 13 12 11 11 10 9 8 6 5 4 4 3 4 6 10 11 13 10 15 17 19 18 17
27 30 32 30 29 29 29 31 28 26 25 27 28 28 26 24 26 23 27 24 22 22 23 23 21 24 22 22 23 21 22 20 20 19 18 17 16 16 15 14 13 13 13 10 8 8 8 6 5 4 5 8 12 12 15 14 12 17 18 18 18 17
29 31 32 30 28 28 30 27 27 24 23 25 25 26 25 25 25 26 26 26 24 19 25 25 22 23 22 25 24 24 23 22 21 20 19 18 17 17 17 16 15 15 13 10 10 10 8 10 10 8 7 14 13 15 16 15 15 19 19 19 19 19
31 32 31 28 27 27 25 25 24 23 21 21 22 23 25 25 nan 26 29 27 26 23 22 23 25 26 26 22 23 25 23 22 21 20 19 17 16 16 16 14 13 12 11 12 12 10 9 8 11 13 15 16 16 16 17 15 17 21 20 21 21 23
30 30 29 28 28 26 25 24 23 23 22 22 22 22 24 26 26 27 27 27 26 23 23 21 19 21 21 22 21 21 21 19 19 19 18 16 17 16 17 15 15 13 12 12 12 11 9 10 12 14 18 21 17 14 16 16 20 22 23 23 21 25
30 29 30 28 27 26 26 22 23 23 23 23 23 23 25 25 27 27 28 28 26 24 23 22 20 20 21 20 21 20 20 17 17 17 20 16 14 14 17 16 13 12 12 12 11 12 12 13 12 16 20 26 20 15 17 18 21 23 25 24 24 28
29 30 31 29 26 25 24 22 23 22 22 23 24 26 24 25 27 28 27 29 29 27 24 22 20 22 20 20 20 19 17 16 15 17 18 17 12 14 17 17 14 14 12 10 11 11 14 11 11 16 14 27 19 20 19 20 24 25 25 25 27 33
30 31 30 30 29 26 23 24 23 24 23 24 25 27 25 27 28 29 29 28 29 26 26 20 20 21 19 21 22 19 17 17 17 16 17 15 14 15 16 17 17 14 12 12 9 11 14 14 13 14 16 18 27 25 22 22 25 27 27 26 27 33
31 31 31 30 29 25 25 24 24 23 21 27 26 28 26 28 28 31 30 28 30 29 27 23 23 23 21 22 26 23 20 19 17 16 13 12 14 13 15 16 19 13 12 12 14 12 10 17 11 15 18 19 19 24 25 21 24 27 28 28 28 31
33 30 31 30 28 26 26 26 25 24 23 28 25 29 28 28 28 29 31 29 30 32 26 21 21 24 24 22 23 24 25 22 18 15 11 10 14 14 15 17 18 17 17 16 11 9 18 14 18 16 20 20 19 19 21 23 23 27 29 30 31 31
33 30 31 29 29 28 28 27 25 22 27 26 26 27 30 30 29 30 31 30 32 30 29 27 25 25 23 21 23 26 23 21 22 22 14 13 13 13 13 13 17 16 18 22 20 16 18 19 18 19 18 20 20 20 20 20 24 29 28 30 30 nan
34 31 32 29 30 30 29 27 26 23 29 26 27 28 30 28 30 31 31 30 29 31 31 31 28 29 28 26 26 27 25 19 22 24 23 18 15 12 7 9 14 18 20 21 20 21 20 19 20 18 22 21 19 20 20 21 22 26 32 29 30 nan
34 31 32 29 31 31 29 29 26 26 29 29 28 29 29 30 31 32 31 31 32 28 27 30 29 29 30 28 28 27 23 23 24 22 21 20 12 7 8 12 18 21 22 23 24 23 20 19 22 21 19 21 18 18 21 23 25 nan nan 30 29 nan
35 34 30 29 31 30 30 30 27 28 29 30 30 30 31 33 33 34 33 32 33 29 28 27 28 28 29 28 29 27 24 25 26 24 20 19 12 13 18 22 22 23 21 25 25 24 21 21 21 22 21 20 19 nan nan nan nan nan nan nan nan nan
34 35 30 31 31 31 31 30 29 29 31 30 30 31 33 33 34 35 36 35 35 31 28 29 28 28 28 28 30 27 25 26 25 22 21 20 18 19 21 21 22 22 21 23 26 21 24 24 22 21 21 nan nan nan nan nan nan nan nan nan nan nan
34 35 30 31 31 32 31 30 29 31 32 30 31 32 34 33 36 37 37 35 35 31 28 29 28 28 28 27 27 26 24 25 22 19 19 19 19 21 21 19 24 21 20 21 22 23 26 24 21 21 nan nan nan nan nan nan nan nan nan nan nan nan
35 34 30 32 32 33 32 31 30 33 32 30 32 33 35 35 36 39 38 34 32 30 30 28 28 27 27 27 24 25 22 20 20 19 19 21 22 20 20 19 21 24 22 21 17 25 25 23 21 22 nan nan nan nan nan nan nan nan nan nan nan nan
34 33 31 33 32 33 31 31 31 33 32 32 32 33 36 36 39 37 35 32 31 30 31 28 27 26 26 25 24 24 22 20 20 22 20 20 21 20 21 21 21 25 24 19 16 18 23 21 21 23 nan nan nan nan nan nan nan nan nan nan nan nan
34 33 32 33 34 32 32 31 32 33 32 32 33 35 36 36 37 35 31 32 30 28 30 30 27 27 26 26 24 21 21 22 23 21 20 14 19 21 21 22 23 24 22 17 10 13 17 18 nan nan nan nan nan nan nan nan nan nan nan nan nan nan
33 33 34 34 33 31 31 32 32 33 33 33 35 36 36 35 32 30 30 30 30 26 30 32 31 25 25 25 21 19 20 22 22 19 19 16 18 19 19 21 23 16 15 12 8 11 19 nan nan nan nan nan nan nan nan nan nan nan nan nan nan nan
32 34 34 33 31 30 31 31 32 32 34 34 37 35 35 31 30 28 31 30 31 27 26 33 35 32 28 27 24 22 24 23 19 22 18 18 16 17 16 15 16 12 9 12 9 13 18 19 nan nan nan nan nan nan nan nan nan nan nan nan nan nan
33 32 32 32 30 28 29 30 32 33 33 35 34 33 32 30 29 29 29 29 30 28 27 30 30 30 30 29 27 28 27 24 18 21 19 17 17 16 14 9 12 11 9 12 11 13 18 nan nan nan nan nan nan nan nan nan nan nan nan nan nan nan
34 32 31 31 30 28 29 31 32 33 33 33 31 31 30 30 30 29 27 28 29 28 28 29 29 27 29 29 29 28 26 23 nan nan 15 15 16 13 12 10 11 14 nan 11 13 12 15 14 nan nan nan nan nan nan nan nan nan nan nan nan nan nan
35 32 29 30 30 31 31 31 32 32 31 31 32 34 32 31 30 30 30 28 28 28 29 30 27 27 29 29 28 27 24 22 19 nan nan 11 15 nan 13 10 11 15 nan nan nan 16 16 17 17 24 nan nan nan nan nan nan nan nan nan nan nan nan
33 31 31 31 31 34 32 31 32 32 35 34 32 31 29 29 28 28 29 28 29 29 nan 28 26 29 nan nan nan nan nan nan nan nan nan nan nan nan 12 nan nan 15 nan 14 nan nan nan nan 22 nan nan nan 24 23 25 nan nan nan nan nan nan nan
32 31 32 32 33 33 32 31 32 34 33 31 29 27 27 29 29 28 29 29 nan nan nan nan nan nan nan nan nan nan nan nan nan nan nan nan nan 13 nan nan nan nan nan nan nan nan nan nan nan nan nan nan nan 25 nan nan nan nan nan nan nan nan
32 31 32 34 34 34 32 30 31 32 31 29 28 26 27 28 29 29 30 30 30 nan nan nan nan nan nan nan nan nan nan nan nan nan nan nan nan nan nan nan nan nan nan nan nan nan nan nan nan nan nan nan nan nan nan nan nan nan nan nan nan nan
32 32 32 35 34 32 30 29 29 29 29 28 28 28 29 29 29 31 32 nan nan nan nan nan nan nan nan nan nan nan nan nan nan nan nan nan nan nan nan nan nan nan nan nan nan nan nan nan nan nan nan nan nan nan nan nan nan nan nan nan nan nan
32 32 33 35 31 30 27 27 28 28 28 27 28 28 29 30 32 31 32 nan nan nan nan nan nan nan nan nan nan nan nan nan nan nan nan nan nan nan nan nan nan nan nan nan nan nan nan nan nan nan nan nan nan nan nan nan nan nan nan nan nan nan
32 32 32 32 27 27 25 26 27 27 28 29 29 30 30 31 31 30 nan nan nan 28 nan nan nan nan nan nan nan nan nan nan nan nan nan nan nan nan nan nan nan nan nan nan nan nan nan nan nan nan nan nan nan nan nan nan nan nan nan nan nan nan
30 30 29 26 23 24 23 25 26 26 28 31 31 31 32 nan nan nan nan nan 28 nan nan nan nan nan nan nan nan nan nan nan nan nan nan nan nan nan nan nan nan nan nan nan nan nan nan nan nan nan nan nan nan nan nan nan nan nan nan nan nan nan
29 28 26 23 20 22 22 24 25 26 29 31 31 30 30 31 nan nan nan nan nan nan nan nan nan nan nan nan nan nan nan nan nan nan nan nan nan nan nan nan nan nan nan nan nan nan nan nan nan nan nan nan nan nan nan nan nan nan nan nan nan nan
28 26 24 21 19 21 22 24 26 27 28 30 31 30 29 29 28 28 nan nan nan nan nan nan nan nan nan nan nan nan nan nan nan nan nan nan nan nan nan nan nan nan nan nan nan nan nan nan nan nan nan nan nan nan nan nan nan nan nan nan nan nan
25 23 21 20 20 22 22 24 27 26 27 29 30 29 28 28 28 28 nan nan nan nan nan nan nan nan nan nan nan nan nan nan nan nan nan nan nan nan nan nan nan nan nan nan nan nan nan nan nan nan nan nan nan nan nan nan nan nan nan nan nan nan
24 22 20 21 21 22 22 25 28 26 29 29 30 30 28 27 28 28 nan nan nan nan nan nan nan nan nan nan nan nan nan nan nan nan nan nan nan nan nan nan nan nan nan nan nan nan nan nan nan nan nan nan nan nan nan nan nan nan nan nan nan nan
23 22 21 21 21 22 24 26 27 28 30 30 30 30 28 27 28 28 nan nan nan nan nan nan nan nan nan nan nan nan nan nan nan nan nan nan nan nan nan nan nan nan nan nan nan nan nan nan nan nan nan nan nan nan nan nan nan nan nan nan nan nan
23 23 22 21 22 23 25 26 27 29 29 30 30 31 29 29 29 29 nan nan nan nan nan nan nan nan nan nan nan nan nan nan nan nan nan nan nan nan nan nan nan nan nan nan nan nan nan nan nan nan nan nan nan nan nan nan nan nan nan nan nan nan
Wind_Direction
319 323 327 324 317 311 312 314 316 318 318 321 323 324 328 333 335 333 330 329 326 320 317 311 314 nan 316 312 310 311 314 314 319 321 323 328 332 335 337 342 340 340 344 345 342 351 355 341 342 351 339 329 275 272 282 274 285 285 283 287 292 300
316 323 326 323 317 312 312 315 317 319 319 323 324 325 328 333 337 332 334 329 327 326 318 314 319 318 314 314 315 315 317 317 316 320 321 325 329 335 340 344 349 353 351 344 334 300 298 326 349 358 341 289 284 290 281 286 289 288 288 294 298 298
316 320 325 322 316 312 315 315 320 324 321 325 327 327 330 332 332 330 331 328 327 330 320 317 318 317 319 317 315 319 319 319 319 319 320 323 326 334 341 343 352 353 347 336 306 303 300 303 308 332 323 283 288 293 294 298 304 292 294 299 300 285
316 317 324 322 314 312 314 316 320 321 321 323 326 329 329 330 nan 327 328 327 328 324 304 310 321 327 314 310 309 316 319 320 323 321 320 315 325 331 336 334 336 337 315 307 300 303 310 306 299 298 288 290 289 293 295 301 297 297 299 295 294 276
307 314 320 318 315 313 312 315 320 314 319 320 324 329 325 327 323 326 320 314 314 312 312 310 305 303 307 307 303 306 307 309 311 309 317 305 297 305 309 310 314 315 299 299 301 296 288 290 295 290 288 278 285 294 299 301 303 306 302 300 296 282
306 313 314 316 313 312 311 314 313 316 315 316 325 321 317 322 316 311 307 312 313 316 315 308 307 306 303 302 303 307 307 302 306 304 303 303 292 284 291 293 289 293 298 288 284 284 287 276 284 284 295 298 305 310 309 309 308 304 303 302 299 286
307 312 317 316 308 307 310 308 308 307 308 315 313 309 313 309 307 308 310 313 316 317 308 303 306 307 307 306 302 292 285 282 283 278 273 287 283 282 279 283 298 287 293 300 295 310 285 292 274 276 285 286 308 313 313 315 308 307 305 306 303 294
309 314 312 310 308 309 307 304 302 304 309 306 302 303 309 308 307 309 311 312 315 307 302 299 304 301 305 307 299 292 292 284 286 278 278 278 280 280 285 285 284 293 296 287 296 284 292 280 283 292 287 288 304 311 315 314 312 309 310 313 311 303
310 313 308 306 304 306 303 299 299 297 301 294 299 303 305 307 306 307 311 314 312 307 303 312 305 311 316 308 309 313 299 289 286 269 274 294 283 276 287 291 283 289 288 296 298 296 305 283 289 295 291 290 291 301 311 315 311 310 312 314 312 305
310 311 305 304 302 302 299 298 299 301 295 295 298 302 304 302 304 307 308 313 305 302 307 302 308 307 305 307 310 307 302 297 290 278 290 304 298 307 295 290 295 302 305 286 299 300 284 320 291 294 291 297 297 301 304 311 312 311 313 313 310 308
303 306 300 302 299 298 297 298 300 301 290 296 296 297 301 303 308 307 308 310 313 306 304 305 310 307 307 305 300 303 302 298 300 303 309 282 284 282 278 295 305 307 309 310 306 306 294 283 294 293 290 290 294 290 293 297 309 309 311 310 309 nan
299 299 299 300 296 295 296 299 299 300 295 297 296 296 299 305 304 307 308 307 307 304 306 308 315 311 313 311 308 312 311 311 308 314 310 303 278 271 267 307 319 301 291 290 289 288 284 277 274 274 282 283 285 291 292 291 291 301 308 308 309 nan
298 297 297 298 295 295 297 296 298 295 295 296 298 299 302 303 303 304 305 309 302 302 306 309 310 309 306 308 309 309 309 309 308 308 303 291 275 295 320 333 308 300 300 295 291 285 280 280 273 275 277 275 280 284 292 296 296 nan nan 306 310 nan
297 297 296 293 292 294 294 293 292 292 294 296 299 301 302 301 303 304 305 306 299 302 302 301 302 302 303 305 305 304 304 305 308 311 302 284 302 322 334 317 304 299 297 296 291 289 289 282 284 276 274 281 289 nan nan nan nan nan nan nan nan nan
293 295 296 291 293 291 290 291 291 292 291 294 298 298 297 300 302 305 304 300 301 305 304 299 299 300 300 301 301 302 304 306 306 303 293 295 315 333 301 299 296 298 300 298 289 284 277 269 268 270 278 nan nan nan nan nan nan nan nan nan nan nan
292 293 295 292 290 289 290 290 291 290 290 295 296 297 298 301 304 302 299 300 303 306 301 296 298 299 299 297 295 300 301 301 297 294 290 295 316 303 300 299 299 295 299 295 297 282 274 273 273 276 nan nan nan nan nan nan nan nan nan nan nan nan
294 295 295 291 289 288 290 291 292 288 293 295 295 297 300 299 298 297 298 298 300 301 296 294 297 299 299 295 297 302 306 307 305 297 298 300 293 293 298 297 294 291 289 293 284 288 277 276 275 276 nan nan nan nan nan nan nan nan nan nan nan nan
294 295 293 290 289 288 292 293 290 292 293 297 295 297 297 298 297 294 296 298 299 296 295 294 298 299 295 292 299 310 311 303 301 298 299 299 299 302 298 295 292 292 293 296 290 273 280 281 279 276 nan nan nan nan nan nan nan nan nan nan nan nan
296 295 291 288 288 290 293 290 291 292 294 295 295 293 294 296 294 296 297 297 294 294 294 295 292 295 291 292 298 306 309 307 296 293 290 287 302 302 300 295 300 297 299 291 283 270 274 275 nan nan nan nan nan nan nan nan nan nan nan nan nan nan
295 293 288 286 288 291 291 293 293 293 296 296 295 295 296 294 294 296 295 294 295 295 297 294 292 290 292 292 302 305 300 290 290 287 286 288 287 292 288 292 287 290 290 289 273 277 273 nan nan nan nan nan nan nan nan nan nan nan nan nan nan nan
293 291 289 289 291 292 292 293 293 296 297 296 295 296 294 294 293 292 292 294 293 295 294 297 303 306 305 310 313 308 296 299 296 294 298 295 290 290 297 296 293 281 270 281 283 276 288 291 nan nan nan nan nan nan nan nan nan nan nan nan nan nan
290 287 286 287 288 288 291 292 293 295 295 294 296 294 293 291 290 289 291 294 293 295 293 290 288 293 301 301 300 295 296 295 298 298 301 305 307 311 307 297 281 278 277 288 285 282 292 nan nan nan nan nan nan nan nan nan nan nan nan nan nan nan
283 280 282 286 287 289 288 289 291 292 293 292 291 288 287 289 287 286 288 291 294 295 290 282 283 288 294 294 293 292 294 296 nan nan 305 313 312 309 279 285 286 287 nan 276 284 281 292 286 nan nan nan nan nan nan nan nan nan nan nan nan nan nan
281 281 283 285 287 286 286 287 289 288 287 285 284 281 284 286 287 290 290 288 286 285 284 286 291 299 293 293 296 296 296 297 296 nan nan 295 295 nan 288 277 276 282 nan nan nan 293 286 291 296 311 nan nan nan nan nan nan nan nan nan nan nan nan
280 281 282 283 284 283 287 287 286 280 276 278 282 285 288 289 293 294 295 297 293 290 nan 288 291 291 nan nan nan nan nan nan nan nan nan nan nan nan 291 nan nan 288 nan 298 nan nan nan nan 297 nan nan nan 309 315 312 nan nan nan nan nan nan nan
275 277 281 283 285 285 288 287 285 285 286 288 291 290 294 297 299 300 300 296 nan nan nan nan nan nan nan nan nan nan nan nan nan nan nan nan nan 286 nan nan nan nan nan nan nan nan nan nan nan nan nan nan nan 310 nan nan nan nan nan nan nan nan
275 276 281 284 287 285 288 286 285 287 289 291 290 290 290 293 296 298 295 296 292 nan nan nan nan nan nan nan nan nan nan nan nan nan nan nan nan nan nan nan nan nan nan nan nan nan nan nan nan nan nan nan nan nan nan nan nan nan nan nan nan nan
274 277 279 281 285 284 286 285 288 289 287 288 287 289 291 291 294 295 297 nan nan nan nan nan nan nan nan nan nan nan nan nan nan nan nan nan nan nan nan nan nan nan nan nan nan nan nan nan nan nan nan nan nan nan nan nan nan nan nan nan nan nan
275 278 279 284 286 287 283 286 290 289 287 286 289 289 287 289 292 294 295 nan nan nan nan nan nan nan nan nan nan nan nan nan nan nan nan nan nan nan nan nan nan nan nan nan nan nan nan nan nan nan nan nan nan nan nan nan nan nan nan nan nan nan
276 277 280 287 287 290 286 286 288 288 290 288 288 289 288 291 290 290 nan nan nan 288 nan nan nan nan nan nan nan nan nan nan nan nan nan nan nan nan nan nan nan nan nan nan nan nan nan nan nan nan nan nan nan nan nan nan nan nan nan nan nan nan
277 277 282 288 289 291 290 289 286 288 290 292 294 292 292 nan nan nan nan nan 287 nan nan nan nan nan nan nan nan nan nan nan nan nan nan nan nan nan nan nan nan nan nan nan nan nan nan nan nan nan nan nan nan nan nan nan nan nan nan nan nan nan
283 284 284 287 289 291 291 290 287 291 295 297 297 295 296 297 nan nan nan nan nan nan nan nan nan nan nan nan nan nan nan nan nan nan nan nan nan nan nan nan nan nan nan nan nan nan nan nan nan nan nan nan nan nan nan nan nan nan nan nan nan nan
288 288 285 286 290 291 292 291 290 294 298 299 296 298 298 298 299 294 nan nan nan nan nan nan nan nan nan nan nan nan nan nan nan nan nan nan nan nan nan nan nan nan nan nan nan nan nan nan nan nan nan nan nan nan nan nan nan nan nan nan nan nan
291 288 285 287 288 290 292 292 293 299 300 299 297 298 296 298 298 291 nan nan nan nan nan nan nan nan nan nan nan nan nan nan nan nan nan nan nan nan nan nan nan nan nan nan nan nan nan nan nan nan nan nan nan nan nan nan nan nan nan nan nan nan
290 291 288 288 288 295 294 293 299 303 301 299 297 295 294 295 295 292 nan nan nan nan nan nan nan nan nan nan nan nan nan nan nan nan nan nan nan nan nan nan nan nan nan nan nan nan nan nan nan nan nan nan nan nan nan nan nan nan nan nan nan nan
290 290 286 287 289 293 293 294 303 301 302 298 295 293 291 292 290 288 nan nan nan nan nan nan nan nan nan nan nan nan nan nan nan nan nan nan nan nan nan nan nan nan nan nan nan nan nan nan nan nan nan nan nan nan nan nan nan nan nan nan nan nan
288 286 288 289 290 290 292 297 301 301 300 296 297 295 293 292 290 290 nan nan nan nan nan nan nan nan nan nan nan nan nan nan nan nan nan nan nan nan nan nan nan nan nan nan nan nan nan nan nan nan nan nan nan nan nan nan nan nan nan nan nan nan